******** Week 152 almanac for PRN-1 ******** ID: 1 Health: 0 Eccentricity: 0.01149368286 Time of Applicability(s): 61440 Orbital Inclination(rad): 0.9870890733 Rate of Right Ascen(r/s): -7.543171346e-09 SQRT(A) (m 1/2): 5153.628906 Right Ascen at Week(rad): -2.285508537 Argument of Perigee(rad): 0.8829748465 Mean Anom(rad): -1.938316553 Af0(s): 0.000328602002 Af1(s/s): -1.091394e-11 week: 152 ******** Week 152 almanac for PRN-2 ******** ID: 2 Health: 0 Eccentricity: 0.02060317993 Time of Applicability(s): 61440 Orbital Inclination(rad): 0.9654096104 Rate of Right Ascen(r/s): -7.726036106e-09 SQRT(A) (m 1/2): 5153.660156 Right Ascen at Week(rad): -2.375158404 Argument of Perigee(rad): -1.434806459 Mean Anom(rad): -1.802989562 Af0(s): -0.0005155132324 Af1(s/s): 0 week: 152 ******** Week 152 almanac for PRN-3 ******** ID: 3 Health: 0 Eccentricity: 0.003921985626 Time of Applicability(s): 61440 Orbital Inclination(rad): 0.9725102637 Rate of Right Ascen(r/s): -8.000333246e-09 SQRT(A) (m 1/2): 5153.611816 Right Ascen at Week(rad): -1.250331038 Argument of Perigee(rad): 0.9492798178 Mean Anom(rad): -3.082008212 Af0(s): -0.0001198342163 Af1(s/s): -1.818989e-11 week: 152 ******** Week 152 almanac for PRN-4 ******** ID: 4 Health: 0 Eccentricity: 0.00173664093 Time of Applicability(s): 61440 Orbital Inclination(rad): 0.9615746585 Rate of Right Ascen(r/s): -7.908900866e-09 SQRT(A) (m 1/2): 5153.59375 Right Ascen at Week(rad): -0.1689172756 Argument of Perigee(rad): -3.030083187 Mean Anom(rad): -0.1831949816 Af0(s): -0.0001462128174 Af1(s/s): 3.637979e-12 week: 152 ******** Week 152 almanac for PRN-5 ******** ID: 5 Health: 0 Eccentricity: 0.005872249603 Time of Applicability(s): 61440 Orbital Inclination(rad): 0.9595013876 Rate of Right Ascen(r/s): -8.126052768e-09 SQRT(A) (m 1/2): 5153.619141 Right Ascen at Week(rad): -1.291006246 Argument of Perigee(rad): 1.007397317 Mean Anom(rad): 0.7190969374 Af0(s): -5.803292236e-05 Af1(s/s): 0 week: 152 ******** Week 152 almanac for PRN-6 ******** ID: 6 Health: 0 Eccentricity: 0.002694606781 Time of Applicability(s): 61440 Orbital Inclination(rad): 0.9864539094 Rate of Right Ascen(r/s): -7.554600394e-09 SQRT(A) (m 1/2): 5153.641602 Right Ascen at Week(rad): -2.293778026 Argument of Perigee(rad): -0.929520827 Mean Anom(rad): -1.638467126 Af0(s): 0.0001756061157 Af1(s/s): 1.091394e-11 week: 152 ******** Week 152 almanac for PRN-7 ******** ID: 7 Health: 0 Eccentricity: 0.01564216614 Time of Applicability(s): 61440 Orbital Inclination(rad): 0.9510405248 Rate of Right Ascen(r/s): -7.840326581e-09 SQRT(A) (m 1/2): 5153.639648 Right Ascen at Week(rad): 0.8494632085 Argument of Perigee(rad): -2.287951071 Mean Anom(rad): -2.610912451 Af0(s): 0.0002487125244 Af1(s/s): 3.637979e-12 week: 152 ******** Week 152 almanac for PRN-8 ******** ID: 8 Health: 0 Eccentricity: 0.00736618042 Time of Applicability(s): 61440 Orbital Inclination(rad): 0.9647145254 Rate of Right Ascen(r/s): -8.011762293e-09 SQRT(A) (m 1/2): 5153.678711 Right Ascen at Week(rad): 2.917995106 Argument of Perigee(rad): 0.1210399226 Mean Anom(rad): 0.3026649707 Af0(s): -4.672780762e-05 Af1(s/s): 0 week: 152 ******** Week 152 almanac for PRN-9 ******** ID: 9 Health: 0 Eccentricity: 0.002196788788 Time of Applicability(s): 61440 Orbital Inclination(rad): 0.9545459106 Rate of Right Ascen(r/s): -8.000333246e-09 SQRT(A) (m 1/2): 5153.555176 Right Ascen at Week(rad): -0.2220092645 Argument of Perigee(rad): 1.879717813 Mean Anom(rad): 0.6902355533 Af0(s): -0.0002773521484 Af1(s/s): 3.637979e-12 week: 152 ******** Week 152 almanac for PRN-10 ******** ID: 10 Health: 0 Eccentricity: 0.007530689239 Time of Applicability(s): 61440 Orbital Inclination(rad): 0.9723245082 Rate of Right Ascen(r/s): -7.977475151e-09 SQRT(A) (m 1/2): 5153.623535 Right Ascen at Week(rad): -1.253113999 Argument of Perigee(rad): -2.503619557 Mean Anom(rad): 2.302436629 Af0(s): -0.0002675543823 Af1(s/s): -1.091394e-11 week: 152 ******** Week 152 almanac for PRN-11 ******** ID: 11 Health: 255 Eccentricity: 0.0002727508545 Time of Applicability(s): 61440 Orbital Inclination(rad): 0.9621738697 Rate of Right Ascen(r/s): -7.794610391e-09 SQRT(A) (m 1/2): 5153.733398 Right Ascen at Week(rad): -2.242199046 Argument of Perigee(rad): 2.790900903 Mean Anom(rad): 0.2469368268 Af0(s): -5.50182251e-05 Af1(s/s): 1.091394e-11 week: 152 ******** Week 152 almanac for PRN-12 ******** ID: 12 Health: 0 Eccentricity: 0.008725643158 Time of Applicability(s): 61440 Orbital Inclination(rad): 0.9697778604 Rate of Right Ascen(r/s): -8.091765626e-09 SQRT(A) (m 1/2): 5153.536133 Right Ascen at Week(rad): 1.962644155 Argument of Perigee(rad): 1.255778617 Mean Anom(rad): 3.026934332 Af0(s): -0.0001431981201 Af1(s/s): -7.275958e-12 week: 152 ******** Week 152 almanac for PRN-13 ******** ID: 13 Health: 0 Eccentricity: 0.00581073761 Time of Applicability(s): 61440 Orbital Inclination(rad): 0.9690408306 Rate of Right Ascen(r/s): -7.783181343e-09 SQRT(A) (m 1/2): 5153.625 Right Ascen at Week(rad): -0.06891715788 Argument of Perigee(rad): 0.9498449489 Mean Anom(rad): -0.2344294156 Af0(s): 0.0002155508545 Af1(s/s): 7.275958e-12 week: 152 ******** Week 152 almanac for PRN-14 ******** ID: 14 Health: 0 Eccentricity: 0.001525878906 Time of Applicability(s): 61440 Orbital Inclination(rad): 0.9531916931 Rate of Right Ascen(r/s): -8.263201338e-09 SQRT(A) (m 1/2): 5153.593262 Right Ascen at Week(rad): 1.931026773 Argument of Perigee(rad): 3.020145643 Mean Anom(rad): 3.092097806 Af0(s): -7.235273437e-05 Af1(s/s): -3.637979e-12 week: 152 ******** Week 152 almanac for PRN-15 ******** ID: 15 Health: 0 Eccentricity: 0.01394462585 Time of Applicability(s): 61440 Orbital Inclination(rad): 0.9303617447 Rate of Right Ascen(r/s): -8.308917528e-09 SQRT(A) (m 1/2): 5153.686035 Right Ascen at Week(rad): -0.3285258045 Argument of Perigee(rad): 1.078726674 Mean Anom(rad): -0.6811050719 Af0(s): -6.255496826e-05 Af1(s/s): 3.637979e-12 week: 152 ******** Week 152 almanac for PRN-16 ******** ID: 16 Health: 0 Eccentricity: 0.01278734207 Time of Applicability(s): 61440 Orbital Inclination(rad): 0.9697299235 Rate of Right Ascen(r/s): -8.103194673e-09 SQRT(A) (m 1/2): 5153.560059 Right Ascen at Week(rad): 1.981257529 Argument of Perigee(rad): 0.7153537397 Mean Anom(rad): 1.17249874 Af0(s): -0.0003775908325 Af1(s/s): -3.637979e-12 week: 152 ******** Week 152 almanac for PRN-17 ******** ID: 17 Health: 0 Eccentricity: 0.0135512352 Time of Applicability(s): 61440 Orbital Inclination(rad): 0.9798985383 Rate of Right Ascen(r/s): -7.806039438e-09 SQRT(A) (m 1/2): 5153.723633 Right Ascen at Week(rad): 3.000142474 Argument of Perigee(rad): -1.495086361 Mean Anom(rad): 0.2187203438 Af0(s): 0.0004612486816 Af1(s/s): 3.637979e-12 week: 152 ******** Week 152 almanac for PRN-18 ******** ID: 18 Health: 0 Eccentricity: 0.002119541168 Time of Applicability(s): 61440 Orbital Inclination(rad): 0.970874417 Rate of Right Ascen(r/s): -7.714607058e-09 SQRT(A) (m 1/2): 5153.572754 Right Ascen at Week(rad): -2.277980571 Argument of Perigee(rad): 3.091656262 Mean Anom(rad): -1.713340069 Af0(s): 0.000178620813 Af1(s/s): -7.275958e-12 week: 152 ******** Week 152 almanac for PRN-19 ******** ID: 19 Health: 0 Eccentricity: 0.009006977081 Time of Applicability(s): 61440 Orbital Inclination(rad): 0.9786821395 Rate of Right Ascen(r/s): -7.783181343e-09 SQRT(A) (m 1/2): 5153.643066 Right Ascen at Week(rad): 3.044980328 Argument of Perigee(rad): 2.015915907 Mean Anom(rad): 2.637026077 Af0(s): 0.0001009923584 Af1(s/s): 3.637979e-12 week: 152 ******** Week 152 almanac for PRN-20 ******** ID: 20 Health: 0 Eccentricity: 0.005082130432 Time of Applicability(s): 61440 Orbital Inclination(rad): 0.9417167978 Rate of Right Ascen(r/s): -8.274630386e-09 SQRT(A) (m 1/2): 5153.700684 Right Ascen at Week(rad): -1.405437618 Argument of Perigee(rad): -3.137045391 Mean Anom(rad): -0.9444550438 Af0(s): 0.0004084914795 Af1(s/s): 0 week: 152 ******** Week 152 almanac for PRN-21 ******** ID: 21 Health: 0 Eccentricity: 0.02457141876 Time of Applicability(s): 61440 Orbital Inclination(rad): 0.9596691667 Rate of Right Ascen(r/s): -7.737465153e-09 SQRT(A) (m 1/2): 5153.529297 Right Ascen at Week(rad): -2.376915216 Argument of Perigee(rad): -0.9913579295 Mean Anom(rad): 0.4227465298 Af0(s): 0.0001258636108 Af1(s/s): 0 week: 152 ******** Week 152 almanac for PRN-22 ******** ID: 22 Health: 0 Eccentricity: 0.01302623749 Time of Applicability(s): 61440 Orbital Inclination(rad): 0.9617304534 Rate of Right Ascen(r/s): -7.840326581e-09 SQRT(A) (m 1/2): 5153.612305 Right Ascen at Week(rad): -0.120610363 Argument of Perigee(rad): -1.869199408 Mean Anom(rad): 0.1107544616 Af0(s): 0.00017635979 Af1(s/s): 7.275958e-12 week: 152 ******** Week 152 almanac for PRN-23 ******** ID: 23 Health: 0 Eccentricity: 0.001994609833 Time of Applicability(s): 61440 Orbital Inclination(rad): 0.9673810154 Rate of Right Ascen(r/s): -8.034620388e-09 SQRT(A) (m 1/2): 5153.646484 Right Ascen at Week(rad): -1.278077889 Argument of Perigee(rad): 2.983940176 Mean Anom(rad): -2.676263178 Af0(s): -3.768371582e-06 Af1(s/s): -3.637979e-12 week: 152 ******** Week 152 almanac for PRN-24 ******** ID: 24 Health: 0 Eccentricity: 0.012362957 Time of Applicability(s): 61440 Orbital Inclination(rad): 0.9345921761 Rate of Right Ascen(r/s): -7.988904198e-09 SQRT(A) (m 1/2): 5153.644043 Right Ascen at Week(rad): 0.7663893105 Argument of Perigee(rad): 0.8104800229 Mean Anom(rad): -1.644893292 Af0(s): 0.0002132898315 Af1(s/s): -3.637979e-12 week: 152 ******** Week 152 almanac for PRN-25 ******** ID: 25 Health: 0 Eccentricity: 0.01054859161 Time of Applicability(s): 61440 Orbital Inclination(rad): 0.9572124006 Rate of Right Ascen(r/s): -8.217485148e-09 SQRT(A) (m 1/2): 5153.646484 Right Ascen at Week(rad): 1.885647382 Argument of Perigee(rad): 0.9883659929 Mean Anom(rad): 2.758901899 Af0(s): 0.0002328853638 Af1(s/s): 3.637979e-12 week: 152 ******** Week 152 almanac for PRN-26 ******** ID: 26 Health: 0 Eccentricity: 0.006903171539 Time of Applicability(s): 61440 Orbital Inclination(rad): 0.9380556171 Rate of Right Ascen(r/s): -8.388920861e-09 SQRT(A) (m 1/2): 5153.650879 Right Ascen at Week(rad): 1.838259884 Argument of Perigee(rad): 0.3797819599 Mean Anom(rad): 2.104281964 Af0(s): 0.0001492275146 Af1(s/s): 3.637979e-12 week: 152 ******** Week 152 almanac for PRN-27 ******** ID: 27 Health: 0 Eccentricity: 0.01034736633 Time of Applicability(s): 61440 Orbital Inclination(rad): 0.9734390411 Rate of Right Ascen(r/s): -7.897471818e-09 SQRT(A) (m 1/2): 5153.603516 Right Ascen at Week(rad): 2.937570214 Argument of Perigee(rad): 0.6467597814 Mean Anom(rad): 0.2783482293 Af0(s): 0.0001145584961 Af1(s/s): 1.455192e-11 week: 152 ******** Week 152 almanac for PRN-29 ******** ID: 29 Health: 0 Eccentricity: 0.001889705658 Time of Applicability(s): 61440 Orbital Inclination(rad): 0.9819238724 Rate of Right Ascen(r/s): -7.794610391e-09 SQRT(A) (m 1/2): 5153.697266 Right Ascen at Week(rad): 3.013190299 Argument of Perigee(rad): 2.242532732 Mean Anom(rad): 0.4117723503 Af0(s): -0.00038588125 Af1(s/s): -3.637979e-12 week: 152 ******** Week 152 almanac for PRN-30 ******** ID: 30 Health: 0 Eccentricity: 0.005591392517 Time of Applicability(s): 61440 Orbital Inclination(rad): 0.9361980622 Rate of Right Ascen(r/s): -8.011762293e-09 SQRT(A) (m 1/2): 5153.520508 Right Ascen at Week(rad): 0.8622986879 Argument of Perigee(rad): -2.736072325 Mean Anom(rad): -2.562301813 Af0(s): -0.0004084914795 Af1(s/s): -3.637979e-12 week: 152 ******** Week 152 almanac for PRN-31 ******** ID: 31 Health: 0 Eccentricity: 0.01044178009 Time of Applicability(s): 61440 Orbital Inclination(rad): 0.9552469877 Rate of Right Ascen(r/s): -7.817468486e-09 SQRT(A) (m 1/2): 5153.652832 Right Ascen at Week(rad): 0.8676305445 Argument of Perigee(rad): 0.3802047784 Mean Anom(rad): -3.065716407 Af0(s): -0.0001326466797 Af1(s/s): 0 week: 152 ******** Week 152 almanac for PRN-32 ******** ID: 32 Health: 0 Eccentricity: 0.00572347641 Time of Applicability(s): 61440 Orbital Inclination(rad): 0.9583988389 Rate of Right Ascen(r/s): -7.920329913e-09 SQRT(A) (m 1/2): 5153.520508 Right Ascen at Week(rad): -0.2107272403 Argument of Perigee(rad): -2.328064894 Mean Anom(rad): 0.9040599667 Af0(s): -6.330864258e-05 Af1(s/s): -7.275958e-12 week: 152